NJE221 EBOS-EGGW

Flight info

Callsign NJE221
Flight time 0h 32m
Altitude 24000
Route KOK DCT BPK
Aircraft CL60/M-SBDE1E2E3FGHIJ4J5J7M3RWXYZ/LB1V1D1

Departure

Time 2026-04-26 15:48
Airport Ostend-Bruges International Airport (EBOS)

Arrival

Time 2026-04-26 16:21
Airport London Luton Airport (EGGW)
Time Latitude Longitude Altitude Speed Heading
2026-04-26 15:29 51.20228 2.87345 22 ft 0 kts 166°
2026-04-26 15:46 51.20242 2.87340 22 ft 8 kts 167°
2026-04-26 15:46 51.20308 2.87364 23 ft 1 kts 224°
2026-04-26 15:46 51.20300 2.87332 23 ft 7 kts 255°
2026-04-26 15:46 51.20281 2.87272 23 ft 5 kts 216°
2026-04-26 15:47 51.20206 2.87141 23 ft 13 kts 192°
2026-04-26 15:47 51.20050 2.87195 22 ft 11 kts 141°
2026-04-26 15:47 51.19999 2.87252 22 ft 0 kts 166°
2026-04-26 15:48 51.19974 2.87264 22 ft 13 kts 147°
2026-04-26 15:48 51.20013 2.87630 21 ft 79 kts 75°
2026-04-26 15:48 51.20214 2.88995 263 ft 158 kts 75°
2026-04-26 15:48 51.20480 2.90798 1175 ft 181 kts 75°
2026-04-26 15:49 51.20750 2.92594 2227 ft 199 kts 75°
2026-04-26 15:49 51.21018 2.94369 3256 ft 215 kts 75°
2026-04-26 15:49 51.21473 2.97386 5334 ft 221 kts 75°
2026-04-26 15:50 51.21707 2.98923 6291 ft 227 kts 75°
2026-04-26 15:50 51.22060 3.01340 7761 ft 233 kts 75°
2026-04-26 15:50 51.22207 3.03905 8998 ft 248 kts 99°
2026-04-26 15:50 51.21420 3.06411 10067 ft 269 kts 135°
2026-04-26 15:51 51.19858 3.07834 11652 ft 264 kts 165°
2026-04-26 15:51 51.18066 3.08160 12915 ft 271 kts 186°
2026-04-26 15:51 51.16259 3.07161 13813 ft 287 kts 218°
2026-04-26 15:51 51.14766 3.03732 15280 ft 296 kts 251°
2026-04-26 15:52 51.14318 3.01652 16009 ft 303 kts 252°
2026-04-26 15:52 51.13635 2.98464 17156 ft 309 kts 252°
2026-04-26 15:52 51.12923 2.95225 18278 ft 314 kts 252°
2026-04-26 15:52 51.12196 2.91954 19318 ft 318 kts 252°
2026-04-26 15:53 51.11495 2.88599 20344 ft 322 kts 258°
2026-04-26 15:53 51.11137 2.85121 21297 ft 326 kts 264°
2026-04-26 15:53 51.10834 2.81535 22240 ft 330 kts 264°
2026-04-26 15:53 51.10417 2.76747 23419 ft 335 kts 264°
2026-04-26 15:54 51.10200 2.74274 23890 ft 343 kts 264°
2026-04-26 15:54 51.09855 2.70371 24223 ft 364 kts 263°
2026-04-26 15:54 51.09643 2.66276 24299 ft 387 kts 274°
2026-04-26 15:54 51.10241 2.61984 24299 ft 406 kts 290°
2026-04-26 15:55 51.11300 2.57776 24271 ft 414 kts 292°
2026-04-26 15:55 51.12374 2.53511 24281 ft 412 kts 292°
2026-04-26 15:55 51.13427 2.49310 24290 ft 409 kts 292°
2026-04-26 15:55 51.14472 2.45138 24287 ft 407 kts 292°
2026-04-26 15:56 51.15519 2.40953 24287 ft 405 kts 292°
2026-04-26 15:56 51.16568 2.36749 24286 ft 405 kts 292°
2026-04-26 15:56 51.17596 2.32620 24289 ft 406 kts 291°
2026-04-26 15:56 51.18623 2.28489 24287 ft 407 kts 291°
2026-04-26 15:57 51.19666 2.24288 24288 ft 407 kts 291°
2026-04-26 15:57 51.20705 2.20094 24285 ft 407 kts 291°
2026-04-26 15:57 51.21747 2.15881 24288 ft 407 kts 291°
2026-04-26 15:57 51.22436 2.13091 24288 ft 407 kts 291°
2026-04-26 15:58 51.23814 2.07502 24287 ft 407 kts 291°
2026-04-26 15:58 51.24857 2.03260 24289 ft 407 kts 291°
2026-04-26 15:58 51.25890 1.99057 24295 ft 407 kts 291°
2026-04-26 15:58 51.26910 1.94891 24294 ft 408 kts 291°
2026-04-26 15:59 51.27942 1.90674 24289 ft 408 kts 291°
2026-04-26 15:59 51.28975 1.86443 24288 ft 408 kts 291°
2026-04-26 15:59 51.30008 1.82203 24286 ft 408 kts 291°
2026-04-26 15:59 51.31038 1.77964 24286 ft 408 kts 291°
2026-04-26 16:00 51.32404 1.72335 24285 ft 408 kts 291°
2026-04-26 16:00 51.33080 1.69543 24284 ft 408 kts 291°
2026-04-26 16:00 51.34106 1.65301 24287 ft 408 kts 291°
2026-04-26 16:00 51.35134 1.61044 24287 ft 408 kts 291°
2026-04-26 16:01 51.36149 1.56827 24290 ft 408 kts 291°
2026-04-26 16:01 51.37157 1.52633 24290 ft 407 kts 291°
2026-04-26 16:01 51.38172 1.48405 24290 ft 407 kts 291°
2026-04-26 16:01 51.39196 1.44127 24290 ft 407 kts 291°
2026-04-26 16:02 51.40199 1.39934 24290 ft 408 kts 291°
2026-04-26 16:02 51.41208 1.35702 24290 ft 408 kts 291°
2026-04-26 16:02 51.42232 1.31401 24293 ft 408 kts 290°
2026-04-26 16:02 51.42900 1.28593 24292 ft 408 kts 290°
2026-04-26 16:03 51.44228 1.22992 24262 ft 404 kts 290°
2026-04-26 16:03 51.45212 1.18838 23879 ft 392 kts 290°
2026-04-26 16:03 51.46164 1.14809 23410 ft 382 kts 290°
2026-04-26 16:03 51.47396 1.09588 22778 ft 371 kts 290°
2026-04-26 16:04 51.48001 1.07022 22456 ft 366 kts 290°
2026-04-26 16:04 51.48888 1.03252 21976 ft 358 kts 290°
2026-04-26 16:04 51.49754 0.99564 21517 ft 352 kts 290°
2026-04-26 16:04 51.50609 0.95916 21045 ft 345 kts 290°
2026-04-26 16:05 51.51446 0.92339 20593 ft 339 kts 289°
2026-04-26 16:05 51.52261 0.88853 20164 ft 333 kts 289°
2026-04-26 16:05 51.53066 0.85402 19723 ft 328 kts 289°
2026-04-26 16:05 51.53860 0.81990 19288 ft 323 kts 289°
2026-04-26 16:06 51.54632 0.78669 18869 ft 318 kts 289°
2026-04-26 16:06 51.55397 0.75373 18447 ft 314 kts 289°
2026-04-26 16:06 51.56162 0.72074 18029 ft 310 kts 289°
2026-04-26 16:06 51.56910 0.68843 17621 ft 312 kts 289°
2026-04-26 16:07 51.57663 0.65580 17206 ft 312 kts 289°
2026-04-26 16:07 51.58416 0.62315 16792 ft 310 kts 289°
2026-04-26 16:07 51.59160 0.59080 16384 ft 308 kts 289°
2026-04-26 16:07 51.59903 0.55851 15974 ft 307 kts 289°
2026-04-26 16:08 51.60634 0.52663 15570 ft 305 kts 289°
2026-04-26 16:08 51.61367 0.49466 15156 ft 303 kts 289°
2026-04-26 16:08 51.62087 0.46317 14768 ft 301 kts 289°
2026-04-26 16:08 51.62810 0.43152 14357 ft 300 kts 289°
2026-04-26 16:09 51.63525 0.40020 13955 ft 297 kts 289°
2026-04-26 16:09 51.64236 0.36897 13573 ft 295 kts 289°
2026-04-26 16:09 51.64934 0.33829 13184 ft 295 kts 289°
2026-04-26 16:09 51.65629 0.30768 12789 ft 291 kts 289°
2026-04-26 16:10 51.66557 0.26674 12277 ft 291 kts 289°
2026-04-26 16:10 51.67004 0.24699 11998 ft 290 kts 289°
2026-04-26 16:10 51.67694 0.21649 11663 ft 287 kts 289°
2026-04-26 16:10 51.68384 0.18594 11220 ft 288 kts 289°
2026-04-26 16:11 51.69056 0.15614 10895 ft 284 kts 289°
2026-04-26 16:11 51.69729 0.12622 10505 ft 283 kts 289°
2026-04-26 16:11 51.70400 0.09639 10130 ft 282 kts 289°
2026-04-26 16:11 51.71067 0.06669 9750 ft 281 kts 289°
2026-04-26 16:12 51.71733 0.03696 9380 ft 279 kts 289°
2026-04-26 16:12 51.72387 0.00772 9020 ft 281 kts 289°
2026-04-26 16:12 51.73691 -0.05062 8276 ft 277 kts 289°
2026-04-26 16:13 51.74342 -0.07985 7901 ft 274 kts 290°
2026-04-26 16:13 51.74995 -0.10907 7358 ft 281 kts 290°
2026-04-26 16:13 51.75680 -0.13845 6905 ft 275 kts 291°
2026-04-26 16:13 51.76351 -0.16701 6562 ft 271 kts 291°
2026-04-26 16:14 51.77020 -0.19555 6161 ft 270 kts 291°
2026-04-26 16:14 51.77678 -0.22370 5810 ft 269 kts 291°
2026-04-26 16:14 51.78961 -0.27860 5421 ft 243 kts 291°
2026-04-26 16:15 51.79558 -0.30414 4900 ft 244 kts 291°
2026-04-26 16:15 51.80136 -0.32896 4471 ft 219 kts 291°
2026-04-26 16:15 51.80631 -0.35020 4221 ft 187 kts 291°
2026-04-26 16:16 51.81474 -0.38636 3710 ft 156 kts 292°
2026-04-26 16:16 51.81845 -0.40223 3539 ft 149 kts 292°
2026-04-26 16:16 51.82209 -0.41782 3337 ft 145 kts 292°
2026-04-26 16:16 51.82568 -0.43304 3162 ft 145 kts 292°
2026-04-26 16:17 51.82932 -0.44847 2914 ft 149 kts 292°
2026-04-26 16:17 51.83302 -0.46423 2659 ft 152 kts 292°
2026-04-26 16:17 51.83665 -0.47987 2417 ft 145 kts 290°
2026-04-26 16:17 51.84010 -0.49486 2165 ft 141 kts 291°
2026-04-26 16:18 51.84494 -0.50808 1921 ft 135 kts 326°
2026-04-26 16:18 51.85565 -0.49669 1716 ft 115 kts 98°
2026-04-26 16:19 51.85687 -0.46920 1647 ft 132 kts 77°
2026-04-26 16:19 51.85916 -0.45526 1447 ft 124 kts 75°
2026-04-26 16:19 51.86423 -0.42791 1121 ft 128 kts 74°
2026-04-26 16:20 51.86662 -0.41427 953 ft 123 kts 76°
2026-04-26 16:20 51.87115 -0.38858 613 ft 117 kts 76°
2026-04-26 16:20 51.87326 -0.37629 523 ft 102 kts 76°
2026-04-26 16:21 51.87464 -0.36954 521 ft 10 kts 19°
2026-04-26 16:21 51.87566 -0.36963 520 ft 11 kts 326°
2026-04-26 16:21 51.87626 -0.37074 520 ft 14 kts 343°
2026-04-26 16:21 51.87682 -0.37099 518 ft 5 kts 344°
2026-04-26 16:22 51.87692 -0.37104 518 ft 0 kts 344°
2026-04-26 16:22 51.87693 -0.37104 518 ft 0 kts 344°